Location: Molveno
(46.1500°N, 10.9667°E)
Time: 07:47:20
(UTC+00:00)

ALOS 2 - Pass Details

Date: 05 July 2020
Orbit: 630 x 632 km, 97.9° (Epoch: 06 August)

Event Time Altitude Azimuth Distance (km) Brightness Sun altitude
Exits shadow 21:58:12 26° 108° (ESE) 1,263 3.8 -18.7°
Maximum altitude 21:59:48 34° 68° (ENE) 1,052 3.7 -18.8°
Drops below altitude 10° 22:03:46 10° 4° (N) 2,024 6.2 -19.0°
Sets 22:06:07 0° 355° (N) 2,937 7.5 -19.1°
